Location: ?????????
(55.6553°N, 38.9075°E)
Time: 03:05:01
(UTC+00:00)

Cosmos 1025 Rocket - Pass Details

Date: 18 October 2019
Orbit: 595 x 617 km, 82.5° (Epoch: 13 November)

Event Time Altitude Azimuth Distance (km) Brightness Sun altitude
Exits shadow 01:21:04 17° 169° (S) 1,520 5.0 -22.9°
Maximum altitude 01:24:10 54° 96° (E) 728 3.6 -22.5°
Drops below altitude 10° 01:28:22 10° 19° (NNE) 1,949 6.0 -21.9°
Sets 01:30:37 0° 15° (NNE) 2,859 6.9 -21.6°
